星链-32788 (STARLINK-32788)

导读

STARLINK-32788是美国SpaceX星链星座的成员,于2025年1月6日发射升空。星链计划旨在构建全球卫星互联网星座,为全球范围内提供高速低延迟的互联网接入服务。该卫星加入星座后,进一步扩充了星链低轨卫星网络的覆盖能力,助力星链服务覆盖范围与服务稳定性的提升。

基本信息
目录编号:
62502
目录名称:
STARLINK-32788
国际标识:
2025-003R
轨道中心:
EARTH
卫星名称:
星链-32788
卫星全名:
星链-32788 (STARLINK-32788)
卫星状态:
在轨 (已飞行606 天)
发射日期:
2025-01-06 UTC
国别 :
美国 (US)
星等 :
--
轨道信息
数据来源 国际轨道数据
星历时间: 2026-09-04T03:25:25+0800
21小时前
查看轨道信息
半长轴: 6861.169km
偏心率: 0.000148
轨道倾角: 43.001°
近地点辐角 265.437°
升交点赤经 2.959°
平近点角 94.632°
近地点: 482.016km
远地点: 484.048km
周期: 94.266分钟
每日圈数: 15.275859
详细信息
固有亮度:
5
最大亮度:
2.5
卫星平台:
Starlink V1.0
覆盖范围:
全球
运营商:
太空探索技术公司
运营商所在国:
美国
制造商(研发单位):
太空探索技术公司
制造商所在国:
美国
使用方式:
暂无
卫星简介
Starlink 计划是 SpaceX 推出的全球卫星互联网项目,通过发射低轨道卫星,为全球尤其是偏远地区提供高速、低延迟的互联网服务。自 2019 年起,Starlink 已部署数千颗卫星,旨在缩小全球数字鸿沟,推动互联网普及。该项目还为军事、航空等行业提供通信支持,带来广泛经济效益。
2D轨道图
3D轨道图
轨道高度分析图
轨道倾角分析图
轨道综合分析图
查看轨道综合分析图
交会数据列表
事件ID 空间交会对象 最接近时刻(TCA) 交会距离 交会风险概率(CRP) 交会风险指数(CRI) 操作
CDM_260906-160106-250206-346021
2026-09-06T
16:01:49+0000
0.562 km
远距离
5.297737E-5 中风险 0.69
CDM_260906-182306-250206-346021
2026-09-06T
18:23:03+0000
0.625 km
远距离
3.879901E-5 中风险 0.67
CDM_260906-221305-650806-250221
2026-09-06T
22:13:19+0000
0.985 km
远距离
1.595866E-5 中风险 0.59
CDM_260904-143405-870306-250221
2026-09-04T
14:34:39+0000
1.546 km
极远距离
4.783744E-6 低风险 0.49
CDM_260906-234705-650806-250221
2026-09-06T
23:47:28+0000
1.694 km
极远距离
2.655005E-6 低风险 0.43
CDM_260904-224506-250206-443421
2026-09-04T
22:45:39+0000
2.129 km
极远距离
1.098919E-6 低风险 0.36